Temperature
20 20 20 19 19 19 21 22 23 22 22 22 22 22 21 20 20 20 20 20 20 20 19 19 19 19 19 19 19 19 19 19 19 19 18 18 19 19 19 19 19 19 19 19 19 18 18 18 18
20 20 20 20 19 20 21 22 22 22 22 22 22 21 20 20 20 20 20 20 20 20 19 19 19 19 19 19 19 19 19 18 18 18 18 18 18 18 19 19 19 18 18 18 18 18 18 18 18
20 20 20 19 20 20 22 22 22 23 23 22 22 21 20 20 20 20 20 20 20 20 19 19 19 19 19 19 19 19 18 18 18 18 18 18 18 18 18 18 18 18 18 18 18 18 18 18 18
20 20 20 20 22 22 22 23 23 22 23 22 21 20 20 20 20 20 20 20 20 20 19 19 19 19 19 18 19 19 18 18 18 19 19 19 18 18 18 18 18 18 18 18 18 18 18 18 18
21 21 20 21 22 22 23 23 23 22 22 22 21 20 20 20 20 20 20 20 20 20 19 19 19 19 19 19 19 19 19 18 19 19 19 19 18 18 18 18 18 18 18 18 18 18 18 18 18
21 20 20 21 22 23 23 24 23 22 22 22 21 20 19 20 20 20 20 20 20 20 19 19 19 19 19 19 19 19 19 19 19 19 18 18 18 18 18 18 18 18 18 18 18 18 18 18 18
21 20 21 22 22 23 24 24 23 22 22 22 21 20 19 20 20 20 20 20 20 19 19 19 19 19 19 19 19 19 18 18 18 19 18 18 18 18 18 18 18 18 18 18 18 18 18 18 18
22 20 22 21 23 23 24 24 23 23 22 22 22 20 20 20 20 20 20 19 19 19 19 19 19 19 19 19 19 19 18 18 18 18 18 18 18 18 18 18 18 18 18 18 18 18 18 18 18
22 20 21 23 23 23 24 23 23 23 22 22 22 21 21 20 20 20 19 19 19 19 19 19 19 19 19 19 19 18 18 18 18 18 18 18 18 18 18 18 18 18 18 18 18 18 18 18 18
22 21 23 23 23 23 24 23 23 22 22 21 21 21 21 20 20 20 20 19 19 19 19 19 19 19 19 19 19 19 18 18 18 18 18 18 18 18 18 18 18 18 18 18 18 18 18 18 18
22 22 23 24 24 24 24 24 23 22 21 22 21 21 21 20 20 20 20 20 20 19 19 19 19 19 19 19 19 19 18 18 18 18 18 18 18 18 18 18 18 18 18 18 18 18 18 18 18
22 23 24 24 25 25 24 24 23 23 23 23 23 22 21 21 20 20 20 20 20 20 20 19 19 19 19 19 19 19 18 18 18 18 18 18 18 18 18 18 18 18 18 18 18 18 18 18 18
24 24 25 25 25 25 24 24 24 23 24 23 22 22 21 21 21 21 20 20 20 20 20 20 19 19 19 19 19 19 18 18 18 18 18 18 18 18 18 18 18 18 18 18 18 18 18 18 18
25 25 25 25 25 25 24 24 23 23 23 23 22 22 21 21 21 21 21 20 20 20 20 20 20 19 19 19 19 19 19 18 18 18 18 18 18 18 18 18 18 18 18 18 18 18 18 18 18
25 24 24 25 25 25 25 24 23 23 23 22 22 22 21 21 21 21 21 21 21 20 20 20 20 20 19 19 19 19 19 19 19 18 18 18 18 18 18 18 18 18 18 18 18 18 18 18 18
24 24 24 25 25 25 25 24 23 23 23 22 22 21 21 21 22 22 21 21 21 21 20 20 20 20 20 19 19 19 19 19 19 19 19 19 18 18 18 18 18 18 18 18 18 18 18 18 18
23 23 24 25 25 24 24 24 23 23 23 22 22 22 22 22 22 22 22 22 21 21 21 20 20 20 20 20 19 19 19 19 19 19 19 19 19 18 18 18 18 18 18 18 18 18 18 18 18
24 24 24 24 25 24 24 23 23 23 22 22 22 22 22 22 23 23 22 22 22 21 21 21 20 20 20 20 20 19 19 19 19 19 19 19 19 18 18 18 18 18 18 18 18 18 18 18 18
24 24 24 24 25 24 23 23 23 22 22 22 22 22 22 23 23 23 22 22 22 21 21 21 21 20 20 20 20 20 19 19 19 19 19 19 19 18 18 18 18 18 18 18 18 18 18 18 18
24 24 24 24 25 24 23 23 23 22 22 22 22 22 22 23 23 23 23 22 22 22 22 21 21 21 20 20 20 20 19 19 19 19 19 18 18 18 18 18 18 18 18 18 18 18 18 18 17
25 24 25 24 24 24 24 23 23 23 23 23 23 23 23 23 23 23 23 23 22 22 22 22 21 21 20 20 20 20 19 19 19 19 19 19 19 18 18 18 18 18 18 18 18 18 18 18 17
24 25 25 25 23 22 23 22 22 22 22 22 22 23 23 23 23 24 23 23 23 23 22 22 21 21 20 20 20 20 20 20 20 19 19 19 19 19 18 18 18 18 18 18 18 18 18 17 17
25 25 24 24 23 22 22 22 22 21 22 22 22 23 23 24 24 24 24 24 23 23 22 22 22 21 21 20 20 20 20 20 19 19 19 19 19 18 18 18 18 18 18 18 18 18 18 17 17
25 24 23 21 20 22 22 22 22 21 22 22 22 23 23 24 24 24 24 24 23 23 23 22 22 22 21 21 20 20 20 20 19 19 19 19 19 18 18 18 18 18 18 18 18 18 18 17 17
24 23 22 22 21 21 21 21 21 22 22 22 22 23 23 24 24 24 24 24 23 23 23 22 22 22 21 21 20 20 20 19 19 19 19 19 18 18 18 18 18 18 18 18 18 18 18 17 17
24 23 22 23 22 21 21 21 22 23 23 23 23 23 23 24 24 24 24 24 23 23 23 22 22 22 21 21 20 20 20 19 19 19 19 18 18 18 18 18 18 18 18 18 18 17 17 17 17
24 22 22 20 21 21 21 21 22 22 22 22 22 22 23 23 24 24 24 23 23 23 23 22 22 22 21 21 21 20 20 20 19 19 19 18 18 18 18 18 18 18 18 18 17 17 17 17 17
23 21 19 20 21 21 22 22 21 22 22 21 20 21 22 23 23 23 23 23 23 23 23 22 22 22 21 21 21 20 20 20 20 19 19 19 18 18 18 18 18 18 18 18 17 17 17 17 17
23 21 19 18 19 20 21 21 22 21 21 20 20 21 21 22 23 23 23 23 23 23 22 22 22 22 21 21 21 20 20 20 19 19 19 19 18 18 18 18 18 18 17 17 17 17 17 17 17
23 22 19 21 20 18 19 20 22 21 20 20 20 21 21 22 22 22 23 23 22 22 22 22 22 22 21 21 21 20 20 20 19 19 19 18 18 18 18 18 18 17 17 17 17 17 17 16 16
Wind_Speed
6 4 2 0 3 4 3 3 1 2 3 2 4 5 5 3 1 2 1 3 4 5 5 7 8 9 9 9 10 10 11 11 11 11 11 11 11 11 11 11 11 11 11 10 10 10 10 10 10
5 4 1 2 4 3 3 3 2 2 3 4 5 5 5 3 3 3 2 3 5 5 5 6 9 9 9 9 10 10 10 11 11 10 11 11 11 10 10 10 10 10 9 9 9 9 9 9 9
4 2 1 3 3 2 1 1 2 4 3 2 4 5 4 2 2 3 1 5 5 5 5 6 9 9 9 10 9 10 10 10 10 10 10 10 10 10 9 9 9 9 8 8 8 8 8 8 8
2 1 2 4 3 1 2 2 3 4 3 5 4 4 3 2 2 3 5 7 6 4 4 6 9 9 9 9 9 9 9 9 9 9 9 9 9 8 8 8 8 7 7 7 7 7 7 7 7
1 2 4 3 3 2 0 2 3 3 3 4 4 4 3 3 4 7 7 6 5 4 4 5 8 8 9 9 9 9 9 9 9 8 8 8 7 7 7 7 6 7 7 7 7 6 6 6 6
2 3 4 2 3 2 1 1 3 4 3 3 4 4 2 2 5 6 6 5 4 4 3 4 6 8 8 9 8 8 9 8 8 7 7 6 6 5 5 6 6 6 6 7 7 6 6 5 5
2 3 2 0 1 1 1 2 3 3 3 2 4 4 1 1 3 5 6 5 4 3 3 2 3 5 7 8 8 7 7 7 7 6 5 5 5 4 4 5 5 6 6 6 7 6 6 5 5
2 3 2 0 1 1 2 3 2 4 2 3 4 5 3 4 5 6 6 5 3 2 2 2 2 2 4 5 7 7 6 6 5 5 4 4 3 3 3 4 4 5 6 6 6 6 5 5 4
2 3 1 2 4 2 3 3 2 3 5 2 2 3 4 8 8 7 5 3 2 2 1 1 1 1 2 3 4 5 5 5 4 3 3 2 1 1 1 3 3 4 5 6 6 6 5 5 5
3 1 4 3 4 4 3 3 4 4 3 2 4 4 7 9 8 7 5 4 3 3 3 2 2 2 2 2 2 2 3 3 2 2 1 1 1 1 1 2 3 3 4 5 5 5 5 4 2
3 3 3 2 3 4 3 2 3 7 3 5 6 8 9 8 7 7 6 5 5 4 3 3 3 2 2 1 1 1 1 1 1 2 1 1 1 1 0 0 1 2 2 2 2 2 2 1 1
2 3 3 2 2 4 4 3 3 4 4 5 9 10 10 9 8 8 7 6 4 4 4 3 3 3 3 2 1 1 1 1 1 2 2 2 1 0 0 0 1 0 1 0 0 0 1 1 2
2 2 1 1 2 3 4 3 3 3 3 8 9 9 9 9 7 6 6 5 4 5 5 4 4 4 2 2 2 2 2 2 2 2 2 2 1 1 0 0 1 1 1 1 1 1 1 1 2
1 0 2 1 1 1 4 1 2 2 7 9 9 8 8 8 7 5 5 5 5 5 5 4 4 4 4 3 2 2 2 2 2 2 2 2 2 1 1 0 0 1 1 1 1 1 1 2 2
1 2 3 1 1 2 5 1 2 4 8 8 7 7 7 6 6 7 7 7 6 5 4 4 4 4 4 4 3 2 2 2 2 2 2 2 2 2 1 0 1 1 1 1 0 0 0 1 2
3 4 2 3 1 2 5 3 3 6 9 8 7 7 7 6 6 7 6 6 5 5 4 4 4 4 4 3 3 2 2 2 2 2 2 2 2 2 1 1 1 1 0 1 1 0 0 1 2
5 2 2 4 1 2 3 4 2 7 9 8 7 7 7 6 6 6 6 6 5 5 5 4 4 5 4 3 2 2 2 2 2 2 2 2 2 2 2 1 1 0 1 0 1 0 1 1 2
3 2 3 4 3 2 3 3 2 5 8 7 7 6 6 7 8 6 6 5 5 5 5 4 4 4 4 3 2 1 1 0 1 1 2 2 2 2 2 1 1 1 1 0 0 0 0 1 1
3 2 4 5 2 2 3 4 4 5 6 6 7 7 7 8 6 4 5 5 5 4 5 5 5 4 4 2 2 2 2 1 1 2 2 3 3 3 2 1 1 1 1 1 1 1 0 1 1
2 2 3 4 2 1 1 3 3 5 7 7 8 8 8 7 4 4 4 5 6 6 6 5 5 5 5 3 3 2 2 2 2 1 1 2 2 3 2 2 1 1 1 0 1 1 1 1 1
2 4 4 3 3 4 2 5 3 3 3 4 5 6 7 8 8 6 6 6 6 6 7 7 6 5 4 3 2 2 2 1 1 0 1 1 2 2 2 2 2 1 2 1 1 2 2 1 0
4 4 3 1 2 2 2 2 6 3 3 4 6 6 7 7 7 7 7 7 7 7 6 6 6 5 5 4 4 4 4 3 3 2 1 1 0 1 1 1 1 2 1 2 2 1 2 2 1
4 1 3 2 4 3 3 1 7 3 4 6 6 7 7 8 8 8 9 9 8 7 6 6 6 5 5 5 6 5 4 3 2 1 1 1 1 1 0 1 1 1 1 1 1 1 1 1 2
3 6 7 6 5 2 2 2 5 3 5 5 4 5 5 5 6 7 6 6 6 6 6 6 6 5 5 6 6 6 6 5 3 2 1 1 1 1 1 1 1 1 1 1 2 1 1 2 2
5 6 4 5 4 4 2 1 6 6 4 4 5 4 3 4 5 5 5 6 6 6 6 6 6 5 4 5 5 5 6 6 5 4 3 2 1 2 2 1 1 1 1 1 1 1 1 2 2
3 7 6 4 4 4 2 3 6 4 3 2 2 2 1 2 4 4 5 5 6 6 6 6 6 5 5 6 5 4 5 5 4 4 3 3 3 3 3 2 2 2 1 1 1 1 1 1 1
5 3 6 7 3 0 4 5 7 3 3 2 2 1 1 1 3 4 4 5 5 6 6 7 7 5 5 5 4 4 4 4 4 4 4 3 3 3 3 2 2 1 1 1 2 1 1 1 1
4 8 6 6 5 2 4 4 4 5 5 3 2 1 2 1 0 1 3 4 4 5 4 4 5 6 5 5 5 4 4 4 4 3 4 4 3 3 2 2 2 2 1 1 1 1 1 1 1
3 4 6 5 5 6 3 6 4 5 5 4 4 2 1 1 1 1 1 2 3 4 4 5 5 4 4 5 5 4 3 3 3 3 3 3 2 3 3 3 2 2 1 1 1 2 1 1 2
3 5 6 5 3 4 4 7 4 3 3 3 2 1 0 0 1 1 2 3 3 3 3 5 5 5 4 4 4 4 3 3 3 2 2 3 3 3 3 3 3 2 2 2 2 2 2 2 3
Wind_Direction
169 161 159 166 52 45 7 337 13 63 47 33 76 86 96 77 114 153 282 130 131 138 150 159 148 139 136 133 130 129 129 127 126 128 130 132 134 136 140 146 148 151 153 154 155 156 157 158 160
156 166 200 50 70 50 338 324 48 80 131 120 73 70 67 56 53 105 115 131 125 132 140 153 145 142 138 135 130 130 131 130 129 131 129 132 137 139 142 147 152 155 157 159 159 158 161 161 162
170 197 64 61 74 141 233 298 106 86 98 87 68 56 69 80 105 141 152 127 113 123 138 159 147 146 143 140 137 135 132 130 131 132 131 135 139 140 143 148 155 161 162 160 158 160 164 166 169
151 58 48 59 35 269 195 198 135 112 69 49 77 63 52 47 139 136 120 122 119 119 133 157 149 149 147 145 144 141 139 136 136 136 137 140 143 145 146 151 157 163 162 161 163 165 168 173 179
71 68 50 34 345 334 114 142 125 97 79 62 81 85 42 15 81 109 121 126 126 116 127 152 150 150 150 148 149 148 146 143 144 143 145 148 151 154 156 161 164 168 170 172 172 171 171 173 179
45 60 62 19 343 5 51 105 109 90 88 88 92 95 54 55 100 122 126 123 118 122 130 148 154 152 153 152 151 151 151 149 150 151 153 153 157 164 169 173 174 173 177 180 178 180 185 187 190
80 73 93 246 328 5 130 93 106 107 100 119 120 102 68 112 139 131 119 106 102 113 126 134 156 160 157 158 157 156 156 157 159 161 161 161 164 171 176 176 181 185 189 191 191 193 194 197 201
134 91 37 303 185 246 144 107 103 107 107 112 116 133 182 191 137 112 99 94 95 102 117 133 141 150 152 161 165 166 163 164 166 169 171 173 176 187 195 188 196 200 204 204 204 205 205 209 213
120 66 304 224 186 191 140 116 87 87 95 86 101 145 167 140 127 109 96 91 113 159 155 150 169 165 156 164 175 178 173 182 181 182 184 189 211 266 231 208 213 210 213 213 211 214 219 231 234
108 137 240 227 188 167 154 140 147 106 104 93 76 86 120 133 138 139 146 159 180 202 212 203 203 195 182 192 182 176 174 183 186 187 196 197 250 249 230 233 236 233 228 221 217 224 231 248 253
151 204 258 279 176 151 145 138 135 133 180 196 168 151 144 147 153 164 178 184 195 200 206 207 207 195 186 206 186 159 163 172 190 219 231 234 262 254 239 12 278 268 256 250 244 245 251 240 227
168 263 237 248 150 140 153 145 136 174 207 171 157 152 154 162 175 184 192 196 189 187 203 205 196 191 195 199 209 184 180 180 205 229 226 193 183 206 213 253 284 312 301 306 276 222 247 232 226
182 285 289 205 142 145 125 140 156 193 129 125 134 145 161 175 188 197 200 196 186 195 202 195 185 185 182 182 215 191 189 188 204 218 216 186 186 208 216 288 287 264 226 199 197 214 236 252 251
238 1 352 348 58 141 131 116 118 184 134 133 146 162 173 184 191 194 197 196 197 200 199 189 185 188 173 180 193 199 183 182 187 202 207 196 200 194 185 253 320 286 242 215 206 213 232 254 250
55 58 8 343 100 136 114 44 221 167 143 149 166 176 183 194 198 203 202 198 197 197 195 188 184 174 174 181 187 185 180 166 170 202 207 200 198 197 179 199 272 276 257 184 110 96 240 267 265
33 47 3 298 126 128 125 248 233 157 153 168 182 188 195 208 213 214 204 199 194 186 187 191 186 165 174 174 168 166 166 165 182 203 204 220 213 197 171 203 251 263 155 126 140 216 288 288 277
25 2 293 299 218 146 168 245 225 160 164 181 193 199 201 213 229 224 208 198 190 185 182 179 172 166 173 168 155 156 152 164 183 186 199 220 215 192 174 209 250 213 117 136 221 206 223 269 288
262 277 287 282 273 164 207 247 212 168 175 190 198 203 206 213 229 222 203 190 177 175 175 176 172 169 157 141 125 117 123 178 181 190 213 211 206 195 175 188 230 161 133 176 167 189 243 251 283
202 211 272 278 267 170 224 250 231 182 184 201 210 212 214 224 229 207 190 179 166 167 172 179 175 174 156 145 150 156 198 208 203 220 225 212 208 196 178 184 186 179 184 212 184 164 40 352 353
186 252 279 305 4 129 265 288 260 197 202 208 212 219 221 226 225 199 188 184 184 186 186 185 186 182 179 175 167 165 165 188 202 236 232 227 214 206 190 183 196 198 186 172 154 140 101 2 41
274 204 238 252 12 38 46 334 317 272 224 223 221 218 220 217 217 207 198 200 192 194 195 195 191 186 183 166 134 118 90 61 62 241 252 257 214 203 197 187 189 195 188 204 204 171 160 198 321
273 237 205 193 86 331 51 306 305 288 282 247 235 224 223 221 213 206 201 203 204 204 194 188 183 183 180 161 161 170 176 186 203 212 230 273 223 183 193 197 187 194 188 195 219 192 193 183 229
228 37 82 86 111 41 21 101 298 332 287 268 249 233 230 219 210 209 209 205 205 196 185 184 180 186 180 171 177 180 190 195 187 170 186 281 319 313 254 230 188 187 189 194 207 187 197 200 206
140 60 55 52 68 25 291 151 293 279 253 275 262 240 228 211 203 208 210 191 192 188 183 177 176 189 179 176 182 188 189 183 177 183 188 228 292 303 299 263 221 207 196 204 209 207 219 235 223
88 85 30 3 13 270 283 170 256 262 250 243 251 248 231 199 192 196 193 186 189 189 187 180 177 189 180 179 187 190 192 187 192 194 198 206 222 250 260 245 225 217 211 209 200 203 233 233 226
165 139 157 196 221 277 333 237 258 281 291 278 261 251 204 178 182 191 193 188 188 187 181 176 179 188 184 187 193 192 191 191 198 192 194 208 224 234 233 222 229 237 217 199 181 198 226 222 238
138 154 160 135 141 346 289 286 305 325 1 15 26 28 316 200 186 193 192 182 183 184 186 184 181 182 183 185 179 182 191 192 195 195 195 212 227 233 225 217 219 223 208 197 183 195 228 221 240
122 141 103 117 142 233 289 279 263 292 304 311 323 319 321 339 273 199 187 183 184 187 181 173 178 188 188 180 181 186 189 194 197 198 204 211 220 219 217 225 221 226 225 209 204 223 224 212 253
82 87 100 110 143 157 230 268 234 235 251 251 251 252 277 327 262 212 163 167 171 168 168 173 181 182 186 192 191 183 184 189 188 200 212 212 213 211 216 214 211 220 238 230 211 247 231 219 253
143 152 144 149 194 167 180 260 286 234 253 226 237 269 288 86 79 68 85 95 117 155 174 180 186 191 199 195 187 188 191 179 181 211 225 210 213 218 214 207 208 219 233 233 222 250 251 233 240
Height
1496 1496 1497 1499 1501 1509 1510 1503 1497 1497 1497 1497 1497 1497 1499 1501 1504 1508 1503 1501 1502 1503 1504 1504 1505 1506 1507 1507 1508 1509 1509 1510 1511 1513 1514 1515 1517 1518 1520 1521 1523 1524 1526 1527 1529 1530 1531 1533 1534
1497 1498 1500 1500 1507 1519 1514 1501 1499 1497 1497 1498 1498 1499 1500 1501 1501 1502 1501 1503 1504 1504 1505 1506 1506 1507 1508 1509 1510 1510 1511 1512 1513 1515 1516 1517 1518 1520 1521 1523 1524 1525 1527 1528 1530 1531 1532 1533 1534
1498 1499 1501 1502 1509 1516 1511 1500 1498 1498 1499 1498 1500 1501 1502 1503 1503 1503 1504 1504 1505 1506 1507 1507 1508 1509 1510 1511 1512 1512 1513 1514 1515 1516 1517 1518 1520 1521 1522 1524 1525 1526 1528 1529 1530 1532 1533 1534 1535
1499 1501 1502 1506 1509 1505 1502 1499 1498 1499 1499 1500 1501 1503 1504 1505 1505 1505 1505 1506 1506 1507 1508 1509 1510 1510 1511 1512 1513 1514 1515 1516 1517 1518 1519 1520 1521 1522 1524 1525 1526 1527 1528 1530 1531 1532 1533 1534 1535
1500 1501 1505 1511 1508 1502 1499 1498 1499 1499 1500 1501 1502 1505 1506 1507 1507 1507 1507 1508 1508 1509 1510 1511 1511 1512 1513 1514 1515 1516 1517 1517 1518 1519 1520 1521 1522 1523 1524 1526 1527 1527 1528 1530 1531 1532 1533 1534 1535
1501 1502 1514 1517 1509 1502 1500 1499 1500 1500 1501 1503 1503 1505 1508 1509 1508 1509 1509 1510 1511 1511 1511 1512 1513 1513 1514 1515 1516 1517 1518 1519 1520 1521 1521 1522 1523 1524 1525 1526 1527 1528 1529 1530 1531 1532 1533 1534 1535
1503 1506 1513 1512 1510 1505 1501 1500 1501 1502 1503 1504 1504 1506 1508 1509 1510 1511 1511 1511 1512 1512 1513 1514 1514 1515 1516 1517 1518 1519 1519 1520 1521 1522 1522 1523 1524 1525 1526 1526 1527 1528 1529 1530 1531 1532 1533 1534 1535
1503 1507 1511 1512 1510 1506 1501 1501 1502 1503 1504 1505 1505 1506 1508 1510 1511 1512 1512 1513 1513 1514 1514 1515 1516 1517 1517 1518 1519 1520 1520 1521 1522 1523 1523 1524 1525 1525 1526 1527 1527 1528 1528 1530 1531 1532 1533 1534 1534
1503 1510 1514 1509 1507 1503 1501 1502 1503 1504 1504 1506 1506 1507 1508 1510 1511 1512 1513 1514 1514 1515 1515 1516 1517 1518 1519 1519 1520 1521 1522 1522 1523 1524 1524 1525 1525 1526 1526 1527 1527 1528 1528 1529 1530 1532 1532 1533 1534
1504 1512 1507 1500 1499 1500 1501 1502 1503 1504 1506 1507 1507 1508 1509 1510 1511 1512 1513 1514 1515 1515 1516 1517 1518 1519 1520 1520 1521 1522 1522 1523 1524 1524 1525 1526 1526 1526 1527 1527 1527 1528 1528 1529 1530 1531 1532 1533 1533
1503 1506 1501 1498 1498 1499 1500 1502 1503 1504 1506 1506 1506 1507 1508 1510 1511 1512 1513 1514 1515 1516 1517 1518 1519 1520 1520 1521 1522 1522 1523 1524 1524 1525 1525 1526 1526 1527 1527 1527 1527 1528 1528 1529 1530 1530 1531 1532 1532
1503 1501 1499 1498 1498 1499 1500 1501 1503 1503 1504 1504 1506 1507 1508 1510 1511 1512 1513 1514 1515 1516 1517 1518 1519 1520 1521 1522 1522 1523 1524 1524 1525 1525 1526 1526 1526 1527 1527 1527 1527 1528 1528 1529 1529 1530 1530 1531 1531
1502 1500 1498 1498 1498 1499 1500 1501 1502 1503 1504 1505 1507 1508 1509 1510 1511 1512 1514 1515 1516 1517 1518 1519 1520 1521 1522 1522 1523 1524 1524 1525 1525 1526 1526 1526 1527 1527 1527 1527 1528 1528 1528 1528 1528 1529 1530 1530 1530
1500 1500 1499 1498 1498 1499 1501 1503 1503 1504 1505 1506 1507 1509 1510 1511 1512 1513 1513 1515 1516 1517 1518 1519 1520 1521 1522 1522 1523 1524 1525 1525 1526 1526 1526 1527 1527 1527 1527 1528 1528 1528 1528 1528 1528 1529 1529 1529 1529
1501 1502 1501 1499 1499 1500 1502 1506 1504 1504 1505 1506 1508 1509 1510 1511 1512 1512 1513 1514 1516 1517 1519 1520 1521 1522 1522 1523 1524 1525 1525 1526 1526 1526 1527 1527 1527 1528 1528 1527 1527 1527 1527 1527 1528 1528 1528 1528 1528
1502 1507 1512 1502 1500 1501 1506 1512 1503 1504 1505 1507 1508 1509 1511 1511 1512 1512 1514 1515 1516 1518 1519 1520 1521 1522 1522 1523 1524 1525 1525 1526 1526 1527 1527 1527 1528 1528 1528 1527 1527 1527 1527 1527 1527 1527 1527 1527 1526
1512 1518 1515 1507 1500 1501 1505 1509 1503 1504 1505 1507 1508 1509 1510 1511 1512 1513 1514 1515 1517 1518 1519 1520 1521 1522 1523 1523 1524 1525 1526 1526 1526 1527 1527 1527 1528 1528 1528 1527 1527 1527 1527 1527 1526 1526 1526 1526 1525
1519 1518 1515 1512 1502 1502 1506 1506 1503 1504 1505 1506 1508 1509 1510 1510 1511 1513 1514 1516 1517 1518 1519 1520 1521 1522 1523 1523 1524 1525 1525 1526 1526 1527 1527 1527 1528 1528 1528 1527 1527 1527 1527 1526 1526 1526 1525 1525 1524
1509 1513 1515 1508 1500 1503 1506 1506 1504 1503 1505 1506 1507 1507 1509 1509 1511 1513 1514 1515 1517 1518 1519 1520 1521 1521 1522 1523 1523 1524 1524 1525 1526 1527 1527 1527 1528 1528 1527 1527 1527 1526 1526 1526 1525 1525 1524 1524 1524
1507 1513 1513 1506 1500 1503 1507 1506 1502 1503 1503 1504 1505 1505 1507 1508 1510 1512 1513 1515 1516 1517 1518 1519 1520 1521 1522 1522 1523 1524 1524 1525 1526 1527 1527 1527 1527 1527 1527 1527 1526 1526 1526 1525 1525 1524 1524 1524 1523
1507 1511 1510 1510 1505 1504 1508 1512 1507 1503 1503 1504 1504 1504 1505 1507 1508 1510 1512 1513 1514 1515 1516 1518 1519 1520 1521 1522 1523 1524 1524 1524 1525 1526 1526 1526 1527 1527 1526 1526 1526 1525 1525 1525 1524 1524 1523 1523 1523
1510 1500 1502 1506 1514 1522 1516 1531 1513 1506 1504 1502 1502 1502 1503 1504 1506 1508 1509 1511 1512 1514 1515 1516 1518 1519 1521 1521 1522 1522 1523 1523 1524 1524 1525 1525 1525 1526 1525 1525 1525 1524 1524 1524 1524 1523 1523 1522 1522
1501 1497 1502 1507 1515 1524 1522 1530 1522 1509 1508 1502 1499 1499 1500 1501 1503 1505 1506 1508 1510 1512 1514 1515 1517 1518 1519 1520 1520 1521 1521 1522 1522 1523 1524 1524 1525 1525 1525 1524 1524 1524 1523 1523 1523 1522 1522 1521 1521
1495 1501 1508 1516 1524 1537 1528 1531 1528 1514 1506 1500 1497 1497 1497 1498 1500 1502 1504 1506 1508 1510 1512 1513 1515 1516 1517 1518 1518 1519 1519 1520 1521 1522 1522 1523 1523 1524 1524 1523 1523 1522 1522 1522 1522 1521 1521 1520 1520
1499 1516 1535 1538 1545 1542 1527 1530 1525 1504 1499 1498 1496 1495 1496 1497 1498 1500 1501 1503 1505 1507 1509 1511 1513 1514 1515 1516 1517 1517 1518 1519 1520 1520 1521 1522 1522 1523 1523 1522 1522 1521 1521 1521 1520 1520 1520 1519 1519
1502 1511 1534 1545 1548 1541 1529 1530 1514 1498 1496 1495 1495 1494 1494 1495 1496 1498 1499 1501 1503 1505 1507 1508 1510 1512 1513 1514 1515 1515 1516 1517 1518 1518 1520 1520 1521 1521 1521 1520 1520 1520 1519 1519 1519 1518 1518 1517 1517
1502 1511 1511 1530 1537 1543 1535 1523 1507 1496 1496 1495 1494 1493 1493 1494 1495 1497 1498 1500 1501 1503 1505 1507 1508 1510 1511 1512 1513 1514 1514 1515 1516 1516 1517 1518 1518 1519 1519 1519 1519 1518 1518 1518 1517 1516 1516 1515 1515
1495 1504 1519 1531 1544 1548 1536 1528 1520 1504 1499 1496 1495 1494 1493 1493 1494 1496 1497 1499 1500 1502 1504 1506 1507 1508 1510 1511 1512 1512 1513 1513 1514 1514 1515 1515 1515 1516 1516 1517 1517 1517 1516 1516 1515 1514 1514 1513 1512
1501 1507 1517 1529 1531 1544 1546 1531 1503 1500 1497 1496 1494 1494 1494 1494 1494 1495 1496 1498 1499 1501 1503 1504 1506 1507 1508 1509 1510 1511 1511 1512 1512 1513 1513 1513 1513 1514 1514 1515 1515 1514 1514 1513 1513 1512 1511 1510 1510
1495 1502 1512 1523 1531 1536 1539 1528 1496 1495 1494 1493 1493 1494 1493 1494 1494 1495 1496 1497 1499 1500 1501 1503 1504 1505 1507 1508 1509 1509 1510 1510 1511 1511 1512 1512 1512 1512 1512 1512 1512 1512 1511 1511 1510 1510 1509 1508 1507